TimeCDT,TemperatureF,Dew PointF,Humidity,Sea Level PressureIn,VisibilityMPH,Wind Direction,Wind SpeedMPH,Gust SpeedMPH,PrecipitationIn,Events,Conditions,WindDirDegrees,DateUTC
12:55 AM,48.2,46.4,93,29.98,10.0,SSE,6.9,-,N/A,,Clear,160,2012-05-11 05:55:00
1:55 AM,45.7,45.1,98,29.98,10.0,South,5.8,-,N/A,,Clear,170,2012-05-11 06:55:00
2:55 AM,44.6,44.6,100,29.99,10.0,SE,8.1,-,N/A,,Clear,140,2012-05-11 07:55:00
3:55 AM,48.2,42.8,82,29.99,10.0,SSE,8.1,-,N/A,,Clear,150,2012-05-11 08:55:00
4:55 AM,50.0,41.0,71,30.00,10.0,South,4.6,-,N/A,,Clear,170,2012-05-11 09:55:00
5:55 AM,50.0,41.0,71,29.99,10.0,SE,8.1,-,N/A,,Partly Cloudy,140,2012-05-11 10:55:00
6:55 AM,53.6,39.2,58,29.97,10.0,SSE,9.2,-,N/A,,Partly Cloudy,160,2012-05-11 11:55:00
7:55 AM,57.2,41.0,55,29.97,10.0,South,8.1,19.6,N/A,,Scattered Clouds,170,2012-05-11 12:55:00
8:55 AM,62.6,46.4,55,29.97,10.0,South,10.4,20.7,N/A,,Mostly Cloudy,170,2012-05-11 13:55:00
9:55 AM,64.4,48.2,56,29.96,10.0,South,15.0,21.9,N/A,,Scattered Clouds,170,2012-05-11 14:55:00
10:55 AM,68.0,50.0,52,29.96,10.0,South,13.8,20.7,N/A,,Mostly Cloudy,180,2012-05-11 15:55:00
11:55 AM,71.6,53.6,53,29.96,10.0,SSW,13.8,21.9,N/A,,Scattered Clouds,200,2012-05-11 16:55:00
12:55 PM,73.4,53.6,50,29.96,10.0,SSW,11.5,20.7,N/A,,Scattered Clouds,200,2012-05-11 17:55:00
1:55 PM,75.2,55.4,50,29.96,10.0,SSW,12.7,25.3,N/A,,Scattered Clouds,210,2012-05-11 18:55:00
2:55 PM,77.0,57.2,50,29.95,10.0,South,11.5,17.3,N/A,,Scattered Clouds,190,2012-05-11 19:55:00
3:55 PM,78.8,57.2,47,29.94,10.0,SW,11.5,18.4,N/A,,Mostly Cloudy,220,2012-05-11 20:55:00
4:55 PM,80.2,57.4,45,29.93,10.0,SW,10.4,18.4,N/A,,Partly Cloudy,230,2012-05-11 21:55:00
5:55 PM,79.9,58.5,48,29.93,10.0,SW,9.2,-,N/A,,Partly Cloudy,230,2012-05-11 22:55:00
6:55 PM,74.7,59.7,60,29.96,10.0,WNW,11.5,-,N/A,,Partly Cloudy,290,2012-05-11 23:55:00
7:55 PM,65.3,55.6,71,30.03,10.0,NW,13.8,26.5,N/A,,Clear,310,2012-05-12 00:55:00
8:55 PM,61.5,54.0,76,30.07,10.0,WNW,12.7,-,N/A,,Partly Cloudy,300,2012-05-12 01:55:00
9:55 PM,60.3,54.0,80,30.10,10.0,NW,15.0,-,N/A,,Partly Cloudy,310,2012-05-12 02:55:00
10:18 PM,59.0,53.6,82,30.12,10.0,NNW,18.4,23.0,N/A,,Mostly Cloudy,330,2012-05-12 03:18:00
10:33 PM,59.0,51.8,77,30.13,10.0,NNW,11.5,-,N/A,,Scattered Clouds,330,2012-05-12 03:33:00
10:55 PM,57.9,52.3,82,30.14,10.0,NNW,15.0,-,N/A,,Partly Cloudy,340,2012-05-12 03:55:00
11:55 PM,55.8,51.3,85,30.16,10.0,NNW,6.9,-,N/A,,Clear,330,2012-05-12 04:55:00